Flag for Germany Weather past 2 weeks in Potsdam, Brandenburg, Germany

Now
48 °F

Light rain. Overcast.


Feels Like: 47 °F
Forecast: 44 / 58 °F
Wind: 5 mph from South

Location: Potsdam

Current Time: Oct 26, 2014 at 5:24:32 AM

Latest Report: Oct 26, 2014 at 4:00 AM


Visibility: 8 mi

Pressure: 30.24 "Hg

Humidity: 99%

Dew point: 48 °F

Location of PotsdamLocation

Historic Weather in Potsdam — Graph

°F

Potsdam temperature yesterday

Maximum temperature yesterday: 51 °F (at 5:00 PM)
Minimum temperature yesterday: 41 °F (at 7:00 AM)
Average temperature yesterday: 46 °F

Past Weeks' High & Low Weather Summary

 TemperatureHumidityPressure
High69 °F (Oct 19, 3:00 PM)100% (Oct 17, 3:00 AM)30.28 "Hg (Oct 17, 3:00 AM)
Low41 °F (Oct 25, 7:00 AM)66% (Oct 15, 4:00 PM)29.44 "Hg (Oct 21, 10:00 PM)
Average54 °F92%29.92 "Hg
* Reported Oct 11 5:00 AM — Oct 26 4:00 AM, Potsdam, Weather by CustomWeather, © 2014

Note: Actual official high and low records may vary slightly from our data, if they occured in-between our weather recording intervals... More about our weather records

Advertising

Potsdam weather history for previous 24 hours

 ConditionsComfort  
Time TempWeatherWind HumidityBarometerVisibility
4:00 AM
Oct 26
48 °FLight rain. Overcast.5 mph99%30.24 "Hg7 mi
3:00 AM47 °FOvercast.5 mph99%30.24 "Hg6 mi
2:00 AM47 °FPassing clouds.3 mph99%30.23 "Hg6 mi
2:00 AM46 °FPassing clouds.3 mph99%30.22 "Hg6 mi
1:00 AM48 °FPassing clouds.5 mph99%30.21 "Hg12 mi
12:00 AM49 °FOvercast.5 mph98%30.20 "Hg6 mi
11:00 PM
Oct 25
49 °FOvercast.3 mph97%30.18 "Hg6 mi
10:00 PM49 °FDrizzle. Overcast.3 mph96%30.18 "Hg7 mi
9:00 PM49 °FOvercast.2 mph93%30.17 "Hg7 mi
8:00 PM49 °FOvercast.2 mph91%30.16 "Hg6 mi
7:00 PM49 °FOvercast.3 mph90%30.15 "Hg8 mi
6:00 PM50 °FOvercast.2 mph89%30.14 "Hg9 mi
5:00 PM51 °FOvercast.2 mph88%30.13 "Hg8 mi
4:00 PM50 °FOvercast.2 mph85%30.13 "Hg9 mi
3:00 PM51 °FOvercast.3 mph82%30.12 "Hg9 mi
2:00 PM49 °FLow clouds.2 mph82%30.12 "Hg8 mi
1:00 PM48 °FLow clouds.3 mph86%30.13 "Hg5 mi
12:00 PM46 °FFog.3 mph90%30.13 "Hg4 mi
11:00 AM43 °FFog.3 mph97%30.14 "Hg2 mi
10:00 AM42 °FFog.3 mph98%30.14 "Hg1 mi
9:00 AM41 °FFog.3 mph97%30.14 "Hg2 mi
8:00 AM41 °FFog.2 mph97%30.13 "Hg2 mi
7:00 AM41 °FFog.2 mph97%30.14 "Hg2 mi
6:00 AM41 °FFog.3 mph95%30.14 "Hg3 mi
5:00 AM42 °FFog.3 mph94%30.15 "Hg3 mi
Weather by CustomWeather, © 2014

See weather overviewHow to use our weather pages